Theta_e
304 304 304 304 305 306 306 306 306 307 307 307 308 309 309 310 311 309 310 310 308 308 307 306 306 307 306 305 303 302 300 300 296 300 301 297 293 292 290 289 291 291 292
300 300 300 300 301 301 300 301 302 302 304 303 303 304 305 305 306 306 306 305 305 305 305 304 304 304 303 304 302 300 300 300 299 296 299 294 291 290 291 288 288 289 289
298 297 297 296 296 296 296 296 297 297 298 299 299 298 298 298 299 300 300 300 300 302 302 301 302 302 299 300 301 301 300 299 298 296 296 291 289 286 286 286 286 287 288
296 295 294 294 294 294 294 294 294 294 294 294 295 294 294 294 294 293 293 294 295 297 298 299 299 298 297 297 296 297 296 295 294 294 294 294 287 284 285 284 285 285 285
294 293 292 293 293 293 292 292 292 291 292 292 291 292 292 293 290 291 290 292 291 292 293 293 293 293 291 293 294 294 292 292 292 291 291 292 286 281 282 284 284 287 284
292 291 291 291 290 290 290 289 290 290 290 290 290 290 290 289 292 291 291 290 290 289 289 290 291 289 290 291 293 293 293 290 288 289 290 290 290 288 286 285 284 280 281
290 288 288 288 287 288 288 288 288 288 289 288 289 289 288 289 290 290 289 288 289 289 289 289 289 289 288 289 290 291 291 292 293 290 288 289 289 290 288 285 283 283 283
287 287 286 286 286 287 286 286 287 287 287 286 287 286 286 287 289 289 288 287 288 289 289 289 289 288 288 287 287 287 287 288 288 288 288 289 290 290 289 288 286 284 282
286 286 285 285 284 284 283 285 286 285 285 285 285 285 284 285 287 287 287 286 286 287 287 288 288 287 289 289 286 286 286 286 289 290 291 291 291 292 291 286 283 281 279
285 284 285 284 283 282 284 284 285 284 284 284 284 285 284 284 286 287 286 285 284 285 286 286 286 286 288 288 286 285 284 285 286 286 286 287 288 287 290 286 285 281 281
284 284 284 283 282 283 283 284 283 283 283 283 283 284 284 284 284 286 286 284 284 283 284 284 285 287 287 287 287 285 284 286 286 285 285 285 285 285 284 285 285 284 283
280 281 280 280 281 282 281 282 283 283 283 283 283 284 285 284 284 285 285 285 285 283 283 284 285 286 286 286 285 286 286 286 285 284 284 284 284 284 284 284 284 284 284
274 274 277 278 279 280 280 280 281 283 283 283 283 282 283 283 283 285 285 285 286 284 283 285 286 285 286 285 285 285 284 285 284 283 283 283 283 284 284 283 283 281 280
272 274 276 277 278 279 281 281 282 281 281 281 281 281 281 282 282 283 284 285 284 284 285 284 284 285 285 284 284 285 284 283 283 283 282 282 282 282 282 282 280 279 277
271 273 275 277 277 277 278 279 280 281 281 279 280 282 281 281 283 284 285 284 284 284 282 282 282 282 282 282 282 283 283 283 283 283 283 282 281 281 280 281 280 280 277
269 273 273 272 274 275 276 277 281 283 283 283 284 284 285 284 284 284 285 286 285 285 282 280 280 280 280 280 280 281 281 281 281 282 281 281 279 279 278 279 280 279 276
266 268 270 271 272 273 274 274 274 279 282 283 284 285 285 283 283 283 283 284 286 284 281 280 279 279 279 279 279 279 278 279 280 280 280 280 279 279 278 277 277 277 275
263 265 267 269 271 272 272 273 274 274 275 277 282 283 284 283 282 282 282 282 282 282 280 278 278 277 277 277 277 277 277 276 275 276 276 277 277 278 277 276 275 275 274
265 267 268 269 270 270 270 271 273 274 276 277 279 281 280 282 281 281 279 278 279 279 277 276 275 275 274 275 275 274 272 270 270 270 271 272 273 274 272 272 271 270 271
266 265 266 267 268 269 271 271 272 273 274 276 278 279 280 276 276 277 274 274 275 274 273 272 271 271 271 271 271 271 270 269 268 267 267 267 268 268 269 268 269 269 269
265 266 266 266 268 269 270 270 271 272 272 274 276 277 276 273 275 272 271 269 269 269 269 269 269 268 268 268 269 268 266 266 264 264 264 263 263 263 264 265 265 264 264
265 266 266 266 267 268 269 269 268 270 271 272 274 272 271 270 270 269 267 266 265 265 265 265 265 264 263 263 263 265 263 262 264 264 263 261 262 261 261 262 261 261 260
265 265 265 266 266 267 267 268 268 269 269 270 270 269 269 268 267 266 265 264 264 263 262 263 263 262 261 261 261 261 261 261 260 261 261 260 260 259 259 258 258 257 257
264 264 264 264 265 264 265 266 266 266 267 267 267 267 266 266 266 265 264 264 263 263 262 261 261 260 261 261 261 260 260 259 259 259 257 257 257 257 257 255 255 254 255
262 262 262 262 262 263 263 264 264 265 265 266 265 265 265 265 265 264 264 263 262 262 262 261 261 261 261 259 259 258 259 259 258 256 255 255 255 254 252 252 252 252 252
261 261 261 261 261 262 262 262 262 263 263 264 264 264 264 264 264 264 264 263 262 262 261 261 261 260 259 259 259 260 259 260 257 256 255 254 253 251 250 249 249 250 250
Wind_Speed
9 8 8 8 8 8 7 7 8 6 7 6 5 5 6 5 5 7 7 7 6 7 5 8 10 8 7 6 6 7 8 8 12 10 6 4 5 6 5 5 7 8 8
8 8 9 9 9 9 8 9 8 8 7 7 7 6 7 7 7 7 7 8 8 8 8 6 9 5 9 8 6 9 10 9 10 18 8 5 7 6 4 4 5 6 7
7 8 9 9 9 9 9 8 8 8 7 7 7 7 7 7 8 7 8 10 10 10 9 9 10 9 10 8 8 9 8 8 9 11 11 2 3 1 3 2 5 6 6
8 9 9 8 8 8 8 8 7 6 6 6 6 5 5 5 5 5 5 8 8 8 9 9 10 10 9 9 8 10 8 8 7 8 10 9 4 2 2 4 7 6 8
7 8 8 7 7 7 7 6 5 4 4 5 5 5 5 5 4 7 6 9 10 8 8 8 8 9 11 11 8 8 7 7 8 8 10 9 3 3 5 3 7 7 5
7 7 6 6 5 4 4 5 5 5 5 4 4 5 5 3 5 11 10 7 8 8 9 8 7 8 10 14 16 17 13 9 9 8 10 11 11 5 5 7 5 2 5
6 6 7 5 5 5 6 6 6 6 6 6 5 6 7 6 9 13 11 6 7 10 11 8 9 7 7 7 11 14 14 15 17 11 13 13 13 10 6 7 8 7 8
5 5 5 5 5 6 7 6 6 6 7 7 8 8 8 8 14 15 14 7 7 8 9 9 10 10 7 7 8 9 9 8 9 8 11 13 11 10 9 9 9 7 0
5 4 4 4 5 6 6 6 6 6 7 7 6 9 9 9 14 16 14 8 8 10 8 8 8 8 10 14 9 10 11 9 9 16 18 21 22 22 19 5 5 4 4
4 4 4 5 4 6 7 7 5 6 7 6 9 8 8 10 14 16 13 7 10 9 10 8 11 9 14 15 9 9 11 12 8 8 9 10 11 10 12 8 5 6 4
3 4 4 4 5 6 6 6 6 7 8 8 9 8 9 8 9 15 15 7 8 9 8 8 7 14 18 16 15 8 11 12 11 7 7 7 6 4 3 4 3 4 3
5 5 4 3 4 5 6 7 7 7 10 10 9 8 6 4 7 11 13 12 12 8 8 7 7 15 16 16 13 16 17 14 6 6 5 6 5 3 1 2 3 2 3
4 4 5 6 5 5 6 7 7 7 8 9 7 7 7 5 7 12 11 14 14 8 7 9 14 14 15 11 12 13 8 4 5 4 5 3 3 2 4 4 5 8 10
5 6 6 6 7 6 5 6 6 7 7 8 8 8 9 9 8 7 8 7 7 8 7 7 9 10 10 8 6 4 4 5 4 4 4 3 1 0 2 3 3 4 6
5 6 6 6 6 8 7 7 7 8 8 7 7 7 7 7 6 12 13 7 6 7 5 6 6 5 4 5 4 2 5 5 3 3 3 1 1 3 3 4 3 1 4
5 5 5 6 6 7 7 8 12 17 18 19 20 16 6 8 14 16 17 17 12 8 4 5 5 4 3 5 5 5 5 6 5 4 4 2 2 3 4 4 3 4 5
4 6 6 6 6 6 6 7 10 10 17 18 19 19 13 11 15 14 15 18 15 3 4 4 4 4 4 4 4 4 4 4 5 5 5 4 4 3 4 4 4 4 4
5 8 6 6 6 6 7 7 8 10 11 9 11 14 15 16 14 14 12 13 5 2 1 4 3 3 3 3 3 4 4 4 4 4 4 4 4 3 3 3 3 3 3
6 5 5 6 6 7 7 8 8 9 10 10 9 11 8 15 13 12 9 4 5 0 1 0 1 2 2 2 3 3 3 3 3 3 4 4 4 3 3 3 3 5 4
5 7 6 6 6 7 7 8 9 9 9 9 9 7 2 1 4 3 1 2 1 1 1 1 2 2 2 2 2 2 2 3 3 3 3 3 3 3 3 3 3 2 3
5 5 6 6 6 6 7 8 8 8 9 8 9 3 5 4 4 2 1 1 2 2 2 2 2 2 3 3 3 2 3 3 3 3 3 3 3 3 3 3 3 3 3
5 5 5 6 6 7 7 7 8 8 9 9 6 1 5 3 2 1 1 1 1 2 2 2 2 3 3 3 3 3 2 3 2 2 2 2 2 3 2 3 2 2 3
4 5 5 5 6 7 7 7 7 7 7 8 5 4 2 2 1 1 1 1 1 1 1 2 1 1 1 1 1 2 3 2 2 2 2 2 2 2 1 1 2 1 2
4 5 5 5 5 5 6 6 7 7 7 6 5 4 3 2 1 0 0 0 0 0 1 1 1 1 1 1 1 0 0 1 1 2 2 2 1 1 1 1 1 1 2
3 4 4 5 5 5 6 6 6 6 6 6 5 4 3 3 2 2 1 1 2 2 2 2 2 3 4 4 3 3 3 4 1 1 0 1 1 1 1 1 1 1 1
3 4 4 4 5 5 5 5 6 6 6 5 5 5 4 4 4 3 2 2 3 3 4 3 4 6 6 5 5 6 6 6 4 4 1 1 2 2 2 2 3 1 2
Wind_Direction
55 56 59 54 50 54 48 34 14 357 0 353 349 335 319 306 292 291 291 285 261 259 240 241 247 245 241 236 222 224 228 225 257 271 266 217 211 229 240 227 238 236 242
55 53 51 50 44 45 41 29 21 11 5 0 351 345 336 331 329 323 306 296 294 286 277 263 261 256 245 244 235 235 235 229 247 271 267 233 220 220 234 214 233 242 250
59 60 56 48 44 38 31 30 25 14 6 5 6 3 349 340 332 324 316 303 294 288 284 279 274 262 255 252 245 248 246 244 244 259 272 218 221 172 233 238 245 245 241
58 58 52 43 38 32 24 20 24 14 11 8 4 348 340 332 323 319 301 299 292 289 288 285 284 277 270 266 257 256 256 248 243 251 261 265 212 180 203 228 248 224 243
67 59 48 38 32 26 19 3 10 359 0 352 341 342 333 331 341 327 315 307 300 294 284 277 273 272 271 271 274 269 258 257 258 260 265 267 229 197 205 206 244 259 242
58 56 40 31 20 4 328 353 358 352 349 338 339 340 325 315 311 325 317 302 289 280 284 280 274 271 272 268 268 266 261 261 257 263 272 268 269 249 218 224 237 194 274
54 40 31 12 3 353 351 359 360 352 343 341 340 342 327 321 322 325 319 296 290 296 296 292 290 284 267 273 284 284 282 274 268 273 268 262 271 260 239 219 215 217 239
50 40 21 358 350 350 354 350 346 344 339 333 324 324 315 308 317 320 319 301 290 284 283 283 279 284 277 281 280 281 277 275 271 268 268 280 281 286 244 241 238 237 306
44 25 2 354 342 343 340 337 332 327 322 313 306 303 300 298 309 316 319 308 300 300 295 283 285 293 296 299 297 290 287 280 267 270 270 279 285 286 275 209 209 195 219
24 355 340 341 333 327 324 321 316 303 292 296 297 292 290 296 308 316 319 304 300 300 298 298 297 293 301 305 294 290 292 298 294 288 285 282 279 281 275 205 216 211 206
354 335 337 343 323 309 308 303 301 297 296 292 291 293 290 288 298 310 311 302 298 300 300 301 298 303 306 305 301 293 291 298 295 286 286 289 288 265 244 207 206 220 213
354 332 328 319 320 314 311 306 304 297 297 294 290 292 285 276 293 305 311 312 309 298 297 302 303 304 307 306 307 304 307 311 302 294 286 285 276 264 201 119 107 79 41
332 324 324 321 305 300 304 298 296 295 294 295 293 298 305 317 307 301 304 310 309 304 297 288 305 305 306 308 311 318 319 303 324 308 302 331 358 30 97 98 88 84 63
341 336 333 327 325 311 306 293 290 294 290 293 295 296 300 306 306 309 308 301 305 304 310 304 304 304 307 312 318 331 353 350 340 333 349 341 336 33 93 99 108 96 88
341 325 317 310 316 306 290 292 285 279 276 281 277 279 287 286 297 306 314 304 301 285 310 301 309 321 321 332 333 338 354 351 341 348 328 346 22 69 69 84 93 81 93
319 310 317 305 305 298 300 300 288 285 286 286 283 270 268 273 300 307 310 314 290 297 295 300 308 320 324 334 345 345 8 358 354 354 8 20 51 80 78 66 59 76 93
297 297 292 292 294 296 299 299 305 302 294 288 286 275 261 273 285 295 308 311 298 263 268 289 301 324 335 335 350 356 13 7 11 23 23 37 62 74 82 78 81 98 96
267 268 273 279 286 292 292 292 294 296 301 298 288 277 263 264 272 283 302 311 257 177 274 290 304 321 337 344 3 350 5 12 15 17 23 20 31 40 61 69 60 70 86
285 283 287 288 281 282 285 281 282 284 284 286 290 280 252 261 269 275 291 274 302 211 141 209 351 342 346 353 7 20 13 18 7 9 19 19 19 33 60 60 69 50 65
264 265 272 286 288 292 288 289 294 292 292 291 287 277 266 245 255 236 244 298 299 25 36 63 43 21 25 8 5 359 8 25 20 24 19 23 18 14 45 41 27 64 57
290 292 285 285 286 296 296 292 293 296 294 293 293 340 318 289 301 331 336 11 5 28 31 30 34 34 19 11 4 11 7 30 26 11 20 16 4 35 22 34 68 58 64
282 298 301 296 294 292 297 303 292 291 295 296 303 4 341 309 323 341 359 43 44 28 20 12 43 34 24 14 1 0 18 23 21 3 25 10 7 38 28 45 49 75 88
292 296 294 293 296 301 301 305 304 302 307 306 311 307 305 316 328 333 84 62 36 35 25 6 23 38 62 20 5 3 351 21 21 358 355 5 6 41 14 87 97 73 101
283 288 293 297 305 314 302 313 305 303 305 304 310 314 313 310 302 337 325 94 269 253 258 254 270 299 327 300 315 350 356 1 12 22 17 9 72 135 73 88 134 96 135
283 293 305 307 308 303 306 305 308 309 314 309 313 310 311 299 286 267 243 240 267 274 265 256 264 271 270 264 260 272 285 313 116 30 51 19 65 108 100 129 122 121 108
292 290 290 290 287 290 293 298 302 305 309 312 309 306 307 302 297 292 270 253 256 256 258 252 252 253 260 263 259 254 252 252 220 217 218 196 181 199 175 188 174 172 177